Upstream stations:
SHEF ID: SYRK1 ARKANSAS R AT SYRACUSE, KS
STATION TYPE:
Regulating: Stage = 10.00, Flow = 2545
PRECIP STAGE RIV-FLOW BAT-LOAD
in ft cfs volt
Ccp-Rev Ccp-Rev Ccp-Rev Ccp-Rev
(US/Central)
04/20 00:00 0.00 3.43 21 12.77
04/20 01:00 0.00 3.42 21 12.71
04/20 02:00 0.00 3.42 21 12.71
04/20 03:00 0.00 3.43 21 12.65
04/20 04:00 0.00 3.42 21 12.65
04/20 05:00 0.00 3.42 21 12.65
04/20 06:00 0.00 3.42 21 12.60
04/20 07:00 0.00 3.42 21 12.60
04/20 08:00 0.00 3.43 21 12.54
04/20 09:00 0.03 3.44 22 12.60
04/20 10:00 0.01 3.47 23 13.53
04/20 11:00 0.01 3.43 21 13.53
04/20 12:00 0.00 3.44 22 13.48
04/20 13:00 0.00 3.43 21 13.48
04/20 14:00 0.00 3.43 21 13.48
04/20 15:00 0.00 3.43 21 13.42
04/20 16:00 0.00 3.44 22 13.36
04/20 17:00 0.00 3.44 22 13.30
04/20 18:00 0.00 3.46 23 13.24
04/20 19:00 0.00 3.45 22 13.18
04/20 20:00 0.00 3.44 22 12.95
04/20 21:00 0.00 3.45 22 12.89
04/20 22:00 0.00 3.45 22 12.83
04/20 23:00 0.00 3.46 23 12.77